[[{"header":{"parameterUnit":"m.s-1","parameterCategory":1,"la1":30.2991,"la2":30.254,"lo1":-89.0895,"lo2":-89.0444,"dy":0.0017,"dx":0.0017,"nx":28,"ny":28,"refTime":"2024-06-16T21:00:00:Z","depth":0,"parameterNumber":2,"parameterNumberName":"U-component_of_WINDS"},"data":[0,0,0,0,0,0,0,0,0,0,0,0,0,0,0,0,0,0,0,0,0,0,0,0,0,0,0,0,0,0,0,0,0,0,0,0,0,0,0,0,0,0,0,0,0,0,0,0,0,0,0,0,0,0,0,0,0,0,-6.8031,-6.803,0,-6.797,-6.7969,-6.7969,-6.7829,-6.7826,-6.7823,-6.782,-6.7762,-6.7763,-6.7764,0,0,0,0,0,0,0,0,0,0,0,0,0,-6.803,-6.8031,-6.8031,-6.803,-6.8029,-6.797,-6.7969,-6.7969,-6.7829,-6.7826,-6.7822,-6.7819,-6.7761,-6.7763,-6.7764,0,0,0,0,0,0,0,0,0,0,0,0,0,-6.8007,-6.8031,-6.8031,-6.7953,-6.7945,-6.797,-6.7969,-6.7968,-6.783,-6.7826,-6.7822,-6.7817,-6.7761,-6.7763,-6.7764,-6.7862,0,0,-6.777,-6.777,0,0,0,0,0,0,0,0,-6.8008,-6.8007,-6.7965,-6.7958,-6.795,-6.7903,-6.7948,-6.7933,-6.7831,-6.7874,-6.782,-6.7815,-6.7812,-6.781,-6.7808,-6.7859,-6.7857,-6.777,-6.7771,-6.7771,-6.7772,0,0,0,0,0,0,0,-6.801,-6.8008,-6.8007,-6.7965,-6.7955,-6.7922,-6.7914,-6.7944,-6.7868,-6.787,-6.786,-6.7854,-6.7807,-6.7807,-6.7805,-6.7856,-6.777,-6.7771,-6.7772,-6.7773,-6.7982,-6.7987,0,0,0,0,0,0,-6.8022,-6.8011,-6.8009,-6.8005,-6.7969,-6.7926,-6.7916,-6.7922,-6.7868,-6.7855,-6.7858,-6.7848,-6.7806,-6.7804,-6.7803,-6.791,-6.7771,-6.7773,-6.7774,-6.7978,-6.7983,-6.7988,0,0,0,0,0,0,-6.8023,-6.8023,-6.8011,-6.8005,-6.8001,-6.793,-6.7938,-6.7923,-6.7922,-6.7859,-6.7845,-6.7871,-6.7802,-6.78,-6.7847,-6.7907,-6.7774,-6.7775,-6.7972,-6.798,-6.7986,-6.8129,0,0,0,0,0,0,-6.8023,-6.8024,-6.806,-6.8007,-6.8002,-6.8056,-6.7942,-6.7925,-6.7925,-6.7911,-6.7867,-6.7855,-6.7799,-6.7846,-6.7849,-6.7907,-6.7777,-6.7967,-6.7976,-6.7984,-6.8118,-6.814,-6.8158,0,0,0,0,0,-6.8024,-6.8103,-6.8062,-6.8063,-6.8044,-6.806,-6.8057,-6.7989,-6.793,-6.7965,-6.7925,-6.7857,-6.7901,-6.7852,-6.7855,-6.7913,-6.7963,-6.7973,-6.7983,-6.8109,-6.8135,-6.8157,0,0,0,0,0,0,-6.8166,-6.8095,-6.8048,-6.8113,-6.8093,-6.8036,-6.8078,-6.8019,-6.8016,-6.8004,-6.7922,-6.7913,-6.7971,-6.7947,-6.7894,-6.8004,-6.7921,-6.7932,-6.8016,-6.804,-6.806,-6.8062,-6.7778,0,0,0,0,0,-6.8205,-6.8222,-6.816,-6.8223,-6.8216,-6.8149,-6.8154,-6.8103,-6.808,-6.8071,-6.8034,-6.8015,-6.8024,-6.8032,-6.8037,-6.8117,-6.8104,-6.8159,-6.8178,-6.8195,-6.8204,-6.8242,-6.8265,-6.8022,-6.8022,-6.8022,0,0,-6.8285,-6.8248,-6.8264,-6.8251,-6.8229,-6.8249,-6.8143,-6.8169,-6.8183,-6.8075,-6.8115,-6.8089,-6.8062,-6.8125,-6.8151,-6.8108,-6.8269,-6.8208,-6.8222,-6.8221,-6.8255,-6.8278,-6.8299,-6.8029,-6.8027,-6.8026,0,0,-6.8439,-6.8415,-6.8463,-6.8445,-6.8414,-6.8369,-6.8382,-6.8334,-6.8311,-6.835,-6.8269,-6.8287,-6.8305,-6.8288,-6.8283,-6.8435,-6.8371,-6.844,-6.8541,-6.8579,-6.8598,-6.8614,-6.8665,-6.8685,-6.845,-6.845,-6.8451,0,-6.8543,-6.8568,-6.8496,-6.8527,-6.8523,-6.8427,-6.8475,-6.8461,-6.8435,-6.8434,-6.8387,-6.8407,-6.8383,-6.8439,-6.8476,-6.8476,-6.8486,-6.8441,-6.8601,-6.8617,-6.8631,-6.8678,-6.8698,-6.8459,-6.8458,-6.8457,-6.8456,0,-6.8695,-6.8715,-6.8759,-6.8733,-6.8735,-6.8775,-6.871,-6.8721,-6.8672,-6.8633,-6.8675,-6.8643,-6.8639,-6.865,-6.8603,-6.87,-6.8674,-6.8616,-6.8529,-6.8663,-6.8706,-6.8724,-6.847,-6.8467,-6.8465,-6.8463,0,0,-6.8933,-6.8869,-6.8885,-6.8872,-6.8832,-6.8846,-6.8884,-6.8879,-6.8888,-6.8875,-6.8902,-6.8921,-6.8866,-6.886,-6.8811,-6.8846,-6.8964,-6.8782,-6.878,-6.8813,-6.9066,-6.9107,-6.9129,-6.8924,-6.8927,-6.893,-6.9067,0,-6.9075,-6.9131,-6.9068,-6.9137,-6.9154,-6.9064,-6.9096,-6.9076,-6.9042,-6.9052,-6.9015,-6.9028,-6.8956,-6.8952,-6.8982,-6.8943,-6.9013,-6.8933,-6.8947,-6.8948,-6.8951,-6.9152,-6.9195,-6.9326,-6.9084,-6.9086,-6.9088,0,-6.9246,-6.9239,-6.931,-6.9264,-6.9269,-6.9299,-6.9289,-6.93,-6.9276,-6.9249,-6.9243,-6.9184,-6.9218,-6.9138,-6.9182,-6.9129,-6.9132,-6.9114,-6.9118,-6.9112,-6.9023,-6.9148,-6.9366,-6.9384,-6.9115,-6.9113,-6.9111,0,-6.9408,-6.9416,-6.9459,-6.9451,-6.9401,-6.9423,-6.9404,-6.9375,-6.9377,-6.937,-6.9369,-6.9368,-6.9366,-6.9366,-6.9308,-6.9256,-6.9359,-6.9275,-6.9336,-6.9337,-6.9357,-6.9355,-6.9574,-6.9368,-6.9367,-6.9367,-6.9367,0,-6.957,-6.9615,-6.953,-6.9556,-6.9605,-6.9534,-6.9585,-6.9557,-6.9533,-6.9552,-6.9477,-6.9497,-6.9422,-6.9434,-6.939,-6.9432,-6.9433,-6.9411,-6.9398,-6.9415,-6.9417,-6.9412,-6.94,-6.9372,-6.9371,-6.937,-6.9369,0,-6.9756,-6.9701,-6.974,-6.969,-6.9679,-6.9717,-6.9674,-6.9696,-6.9659,-6.9684,-6.9686,-6.9627,-6.9638,-6.9582,-6.9583,-6.9554,-6.9616,-6.959,-6.9623,-6.9613,-6.9675,-6.9669,-6.9894,-6.9919,-6.9702,-6.9704,-6.9706,0,-6.986,-6.9892,-6.9846,-6.9853,-6.9836,-6.9849,-6.985,-6.9783,-6.9787,-6.9762,-6.9788,-6.9792,-6.9791,-6.9813,-6.977,-6.9771,-6.9742,-6.9821,-6.9741,-6.9757,-6.9738,-6.9734,-6.9736,-6.9836,-6.9839,-6.9841,-6.9843,0,-7.0049,-7.0021,-7.0024,-7.0018,-7.002,-7.0013,-7.0,-7.0011,-6.9939,-6.9947,-6.9956,-6.9956,-6.9957,-6.9962,-6.9954,-6.9935,-6.9877,-6.9869,-6.9882,-6.9897,-6.9913,-6.9901,-6.9663,-6.9863,-6.9861,-6.9859,-6.9858,-6.9857,-7.0194,-7.0219,-7.0189,-7.0195,-7.0179,-7.0169,-7.0187,-7.0152,-7.0158,-7.0152,-7.0114,-7.013,-7.0106,-7.0089,-7.0076,-7.0088,-7.005,-7.0071,-7.0075,-7.008,-7.0089,-6.9916,-7.0087,-7.0086,-7.0086,-7.0085,-7.0085,0,-7.0376,-7.0354,-7.036,-7.0344,-7.0349,-7.0295,-7.0279,-7.0287,-7.0301,-7.0284,-7.0285,-7.0295,-7.03,-7.0259,-7.0258,-7.0276,-7.0249,-7.0278,-7.0273,-7.0269,-7.0125,-7.0111,-7.0299,-7.0299,-7.0299,-7.0299,-7.0299,-7.0299,-7.0471,-7.0508,-7.0477,-7.0506,-7.0483,-7.0497,-7.0493,-7.0483,-7.0468,-7.0483,-7.0486,-7.046,-7.0432,-7.0429,-7.0431,-7.0419,-7.0421,-7.0458,-7.0437,-7.0301,-7.028,-7.026,-7.0246,-7.046,-7.046,-7.0579,-7.058,-7.0581]},{"header":{"parameterUnit":"m.s-1","parameterCategory":1,"la1":30.2991,"la2":30.254,"lo1":-89.0895,"lo2":-89.0444,"dy":0.0017,"dx":0.0017,"nx":28,"ny":28,"refTime":"2024-06-16T21:00:00:Z","depth":0,"parameterNumber":3,"parameterNumberName":"V-component_of_WINDS"},"data":[0,0,0,0,0,0,0,0,0,0,0,0,0,0,0,0,0,0,0,0,0,0,0,0,0,0,0,0,0,0,0,0,0,0,0,0,0,0,0,0,0,0,0,0,0,0,0,0,0,0,0,0,0,0,0,0,0,0,2.7795,2.7796,0,2.7879,2.788,2.7881,2.7903,2.7903,2.7902,2.7902,2.7983,2.7986,2.7988,0,0,0,0,0,0,0,0,0,0,0,0,0,2.7648,2.7651,2.7795,2.7796,2.7797,2.7879,2.788,2.7882,2.7903,2.7903,2.7902,2.7901,2.7982,2.7985,2.7988,0,0,0,0,0,0,0,0,0,0,0,0,0,2.772,2.7652,2.7795,2.7818,2.7821,2.7879,2.788,2.7882,2.7903,2.7903,2.7902,2.7901,2.7981,2.7985,2.7989,2.8028,0,0,2.8001,2.8003,0,0,0,0,0,0,0,0,2.7716,2.7725,2.7813,2.7816,2.782,2.788,2.7859,2.7931,2.7904,2.7872,2.7902,2.7901,2.7949,2.7956,2.7973,2.8032,2.8036,2.8001,2.8004,2.8005,2.8006,0,0,0,0,0,0,0,2.7711,2.7722,2.7828,2.7815,2.7819,2.7823,2.7832,2.7872,2.7913,2.7875,2.7876,2.7886,2.7951,2.7969,2.7975,2.8037,2.8001,2.8005,2.8007,2.8009,2.8133,2.8134,0,0,0,0,0,0,2.7703,2.7718,2.7825,2.7831,2.7765,2.7826,2.7836,2.7861,2.7913,2.792,2.7887,2.7887,2.7963,2.797,2.7978,2.8028,2.8005,2.8009,2.8011,2.8132,2.8133,2.8134,0,0,0,0,0,0,2.7699,2.7712,2.7822,2.7775,2.7789,2.7829,2.7857,2.7863,2.7882,2.7923,2.7929,2.7899,2.7962,2.7972,2.8016,2.8031,2.8011,2.8014,2.8131,2.8133,2.8134,2.8128,0,0,0,0,0,0,2.7695,2.7711,2.7727,2.7775,2.7792,2.786,2.7858,2.7866,2.7889,2.789,2.7935,2.7942,2.7963,2.801,2.802,2.8036,2.8017,2.813,2.8132,2.8134,2.8127,2.8129,2.8131,0,0,0,0,0,2.769,2.7721,2.7728,2.7741,2.7813,2.7861,2.787,2.7895,2.7891,2.7907,2.7933,2.794,2.8028,2.8014,2.8026,2.8043,2.8129,2.8131,2.8133,2.8127,2.8129,2.8131,0,0,0,0,0,0,2.7671,2.7727,2.7736,2.7784,2.7818,2.7865,2.7886,2.7897,2.7931,2.793,2.7958,2.7968,2.801,2.8031,2.8015,2.8085,2.8078,2.8083,2.8069,2.8072,2.8074,2.8068,2.8021,0,0,0,0,0,2.7674,2.7709,2.7756,2.7793,2.781,2.7845,2.7867,2.7883,2.7919,2.7933,2.7962,2.7995,2.803,2.8052,2.8086,2.8131,2.8141,2.8148,2.815,2.8152,2.8155,2.818,2.8184,2.8141,2.8141,2.8141,0,0,2.7677,2.7712,2.7733,2.7791,2.7819,2.7854,2.7857,2.7894,2.792,2.7938,2.7982,2.8004,2.8042,2.8087,2.8108,2.8106,2.8169,2.8154,2.8155,2.8158,2.8183,2.8187,2.819,2.8143,2.8143,2.8142,0,0,2.7702,2.7732,2.7767,2.7796,2.784,2.7863,2.7871,2.7917,2.7934,2.7979,2.7993,2.8023,2.8083,2.811,2.8132,2.8168,2.8176,2.8178,2.8188,2.8212,2.8215,2.8219,2.8232,2.8236,2.8181,2.8181,2.8181,0,2.77,2.7756,2.7783,2.7821,2.7845,2.7865,2.7901,2.7926,2.7978,2.7994,2.7992,2.8068,2.8095,2.8146,2.8155,2.8172,2.8182,2.8173,2.8213,2.8216,2.822,2.8232,2.8237,2.8181,2.8181,2.8181,2.8181,0,2.7752,2.779,2.7813,2.7865,2.7892,2.7928,2.796,2.7984,2.7998,2.8021,2.8066,2.81,2.8142,2.8155,2.8168,2.8209,2.8206,2.8208,2.8202,2.8223,2.8236,2.8241,2.8181,2.8181,2.8181,2.8181,0,0,2.7767,2.7835,2.7843,2.7867,2.7917,2.7946,2.7982,2.8026,2.8046,2.8081,2.8111,2.8162,2.8165,2.8189,2.8205,2.8227,2.8254,2.8226,2.8227,2.823,2.83,2.8298,2.8304,2.826,2.8261,2.8261,2.8297,0,2.7798,2.7866,2.7892,2.7947,2.7983,2.8002,2.8034,2.8067,2.809,2.8122,2.8146,2.8182,2.8183,2.8198,2.822,2.8246,2.8268,2.8243,2.8287,2.8289,2.8277,2.831,2.8308,2.834,2.8302,2.8303,2.8303,0,2.7843,2.7881,2.794,2.7987,2.8003,2.8031,2.8073,2.8104,2.8142,2.8156,2.8185,2.82,2.8238,2.823,2.8282,2.8265,2.8284,2.83,2.8302,2.8306,2.8297,2.8316,2.8351,2.8356,2.8311,2.831,2.831,0,2.7849,2.7914,2.7958,2.7978,2.8033,2.8053,2.8076,2.8114,2.8138,2.8174,2.819,2.8229,2.8251,2.828,2.8305,2.8297,2.8355,2.8349,2.8367,2.8367,2.8378,2.8377,2.8417,2.8391,2.8391,2.8391,2.839,0,2.7881,2.7916,2.7962,2.7989,2.8029,2.8058,2.8096,2.8121,2.8154,2.8185,2.8204,2.8232,2.8264,2.8296,2.8316,2.8356,2.8365,2.8378,2.8382,2.8376,2.8375,2.8389,2.8387,2.8392,2.8392,2.8391,2.8391,0,2.7893,2.7926,2.7975,2.8024,2.8037,2.8064,2.8106,2.8132,2.8156,2.8195,2.8206,2.8243,2.8282,2.831,2.836,2.8373,2.8416,2.8421,2.8404,2.8406,2.8423,2.8421,2.8474,2.8482,2.845,2.845,2.8451,0,2.7912,2.794,2.7993,2.8016,2.804,2.8077,2.8103,2.8133,2.8158,2.8204,2.8225,2.8266,2.83,2.8361,2.8391,2.8429,2.8435,2.8451,2.8441,2.8434,2.8435,2.8434,2.8437,2.8452,2.8452,2.8452,2.8453,0,2.7941,2.7956,2.7994,2.8037,2.8067,2.8102,2.8137,2.8154,2.819,2.8218,2.8259,2.8286,2.8338,2.8378,2.8419,2.8442,2.8453,2.8456,2.8462,2.8456,2.8445,2.8452,2.8408,2.8454,2.8454,2.8454,2.8454,2.8454,2.7958,2.7984,2.8026,2.8067,2.8096,2.8129,2.8156,2.8185,2.822,2.8266,2.8281,2.8324,2.8361,2.8418,2.8441,2.8474,2.8474,2.8483,2.8485,2.8487,2.8487,2.844,2.8482,2.8482,2.8482,2.8482,2.8482,0,2.7989,2.8017,2.8054,2.8104,2.8136,2.8146,2.8185,2.821,2.8249,2.8283,2.8317,2.8365,2.8404,2.8438,2.8478,2.8498,2.8504,2.8507,2.8506,2.8511,2.8485,2.8476,2.8502,2.8502,2.8502,2.8502,2.8502,2.8501,2.8008,2.8054,2.8073,2.8133,2.816,2.8204,2.8226,2.8255,2.8283,2.8336,2.837,2.8392,2.8426,2.847,2.8505,2.8514,2.8528,2.853,2.854,2.8515,2.8513,2.851,2.8502,2.8533,2.8533,2.8564,2.8564,2.8564]}]]